Weather Roundup
Issued by NWS Chicago, IL

Home | Current Version | Previous Version | Text Only | Print | Product List | Glossary Off
Versions: 1 2 3 4 5 6 7 8 9 10 11 12 13 14 15 16 17 18 19 20 21 22 23 24 25 26 27 28 29 30 31 32 33 34 35 36 37 38 39 40 41 42 43 44 45 46 47 48 49 50

000
NZUS59 KLOT 082208
HRRLOT

CHICAGO AREA WEATHER ROUNDUP
NATIONAL WEATHER SERVICE CHICAGO/ROMEOVILLE IL
400 PM CST THU DEC 08 2016

NOTE: "FAIR" INDICATES FEW OR NO CLOUDS BELOW 12,000 FEET WITH NO
SIGNIFICANT WEATHER AND/OR OBSTRUCTIONS TO VISIBILITY.

* THESE STATIONS ARE NOT UNDER NWS QUALITY CONTROL. THEY ALSO MAY NOT
  REPORT WEATHER SUCH AS PRECIPITATION OR FOG.

ILZ005-006-012>014-019>023-082300-
NORTHEAST ILLINOIS

CITY           SKY/WX    TMP DP  RH WIND       PRES   REMARKS
OHARE          CLOUDY    22  14  71 W18       30.34R WCI   7
MIDWAY         FLURRIES  22  13  68 W16G24    30.35R WCI   8
AURORA         CLOUDY    22  15  75 W17       30.37R WCI   8
LANSING*       CLOUDY    20  15  81 W12G25    30.36R WCI   8
JOLIET*        CLOUDY    23  16  75 W15G22    30.39R WCI  10
WAUKEGAN       CLOUDY    24  15  68 W9G20     30.30R WCI  14
DUPAGE AIRPORT CLOUDY    21  13  71 W14G22    30.35R WCI   8
WHEELING       CLOUDY    22  14  71 W15       30.34R WCI   9
KANKAKEE*      FLURRIES  21  14  73 W14G22    30.40R WCI   8
MORRIS*        CLOUDY    22  16  78 W17       30.39R WCI   7
LEWIS AIRPORT* FLURRIES  21  17  87 W13       30.37R WCI   8
NORTHERLY ISL    N/A     22  15  75 W18         N/A  WCI   8
$$

WIZ051-052-058>065-066-070>072-082300-
SOUTHEAST WISCONSIN

CITY           SKY/WX    TMP DP  RH WIND       PRES   REMARKS
MILWAUKEE      FLURRIES  26  15  63 NW18G29   30.28R WCI  13
KENOSHA*       CLOUDY    24  15  68 W17G24    30.30R WCI  11
RACINE*        CLOUDY    25  14  63 W16G25    30.30R WCI  12
BURLINGTON     CLOUDY    28  21  74 W23G30    30.31R WCI  14
WAUKESHA       CLOUDY    21  16  79 W20G29    30.29R WCI   6
WEST BEND        N/A    N/A N/A N/A W15       30.25
$$

INZ001>003-010>013-019-020-082300-
NORTHWEST INDIANA

CITY           SKY/WX    TMP DP  RH WIND       PRES   REMARKS
GARY*          CLOUDY    23  14  68 W26       30.36R WCI   6
MICHIGAN CITY* NOT AVBL
RENSSELAER*    NOT AVBL
VALPARAISO     CLOUDY    20  12  71 W15       30.34R WCI   6
$$

LMZ740>746-082300-
SOUTHERN LAKE MICHIGAN

STATION/POSITION TIME  SKY/WX   TEMP WIND        PRES    VSBY
                                AIR  DIR/SP/G
                 (UTC)          (F)  (DEG/KT/KT) (MB)    (MI)
HARRISON CRIB    2140            23  280/ 21/ 24   N/A
BURNHAM HARBOR   2200            23  280/ 18/ 21   N/A
CALUMET HARBOR   2142            21  250/  9/ 16 1026.8R
BURNS HARBOR     2150            23  280/ 19     1027.1R
MICHIGAN CITY    NOT AVBL
$$

ABBREVIATIONS USED IN REMARKS
   TC - TEMPERATURE IN CELSIUS
  WCI - WIND CHILL INDEX
   HX - HEAT INDEX
  VSB - VISIBILITY
$$



USA.gov is the U.S. government's official web portal to all federal, state and local government web resources and services.